User: anonymous   Login
Location: Unspecified
(0.0000°N, 0.0000°E)
Time: 15:32:04
(UTC+00:00)
Language:

NOSS 7 (D) - Orbit

View from above orbital plane
View from above orbital plane
View from above satellite
View from above satellite

Ground track
Ground track

The orbit data is extracted from the following two-line orbital elements,

1 16623U 86014D   17199.90354463 0.00000800  00000-0  11054-3 0    03
2 16623  63.3080 111.0562 0874000  57.8426 302.1573 13.45103433    05
Epoch (UTC): 18 July 2017 21:41:06
Eccentricity: 0.0874000
inclination: 63.3080°
perigee height: 437 km
apogee height: 1743 km
right ascension of ascending node: 111.0562°
argument of perigee: 57.8426°
revolutions per day: 13.45103433
mean anomaly at epoch: 302.1573°
orbit number at epoch: 0

The dashed part of the orbit path shows where the satellite is in the earth's shadow,  

DLR